Home > Weather > Osage City > Past weeks

Flag for USA Past Weather in Osage City, Kansas, USA — Yesterday and Last 2 Weeks

Now
75 °F

Clear.


Feels Like: 75 °F
Forecast: 68 / 84 °F
Wind: 7 mph from Southeast

Location: Forbes Field

Current Time: May 24, 2016 at 10:29:19 PM

Latest Report: May 24, 2016 at 9:53 PM


Visibility: 10 mi

Pressure: 29.83 "Hg

Humidity: 85%

Dew Point: 70 °F

Location of Osage CityLocation

Past Weather in Osage City — Graph

°F

Osage City Temperature Yesterday

Maximum temperature yesterday: 74 °F (at 5:53 PM)
Minimum temperature yesterday: 64 °F (at 9:53 PM)
Average temperature yesterday: 69 °F

High & Low Weather Summary for the Past Weeks

 TemperatureHumidityPressure
High83 °F (May 10, 5:53 PM)93% (May 10, 3:53 AM)30.35 "Hg (May 10, 3:53 AM)
Low43 °F (May 14, 4:53 AM)30% (May 12, 3:53 PM)29.59 "Hg (May 9, 9:53 PM)
Average62 °F71%30.04 "Hg
* Reported May 9 9:00 PM — May 24 8:53 PM, Osage City, Weather by CustomWeather, © 2016

Note: Actual official high and low records may vary slightly from our data, if they occured in-between our weather recording intervals... More about our weather records

Advertising

Osage City Weather History for the Previous 24 Hours

Scroll right to see more
 ConditionsComfort  
Time TempWeatherWind HumidityBarometerVisibility
8:53 PM
Tue, May 24
77 °FPartly sunny.8 mph77%29.83 "Hg10 mi
7:53 PM79 °FScattered clouds.9 mph72%29.82 "Hg10 mi
6:53 PM82 °FScattered clouds.10 mph65%29.85 "Hg10 mi
5:53 PM82 °FSunny.10 mph63%29.83 "Hg10 mi
4:53 PM81 °FSunny.15 mph62%29.84 "Hg10 mi
3:53 PM81 °FSunny.13 mph58%29.85 "Hg10 mi
2:53 PM81 °FSunny.16 mph54%29.86 "Hg10 mi
1:53 PM80 °FSunny.17 mph56%29.85 "Hg10 mi
12:53 PM75 °FSunny.14 mph69%29.88 "Hg10 mi
11:53 AM72 °FSunny.7 mph73%29.93 "Hg10 mi
10:53 AM68 °FSunny.6 mph78%29.91 "Hg10 mi
9:53 AM64 °FLight rain. Fog.6 mph87%29.99 "Hg5 mi
9:01 AM66 °FScattered clouds.10 mph84%30.01 "Hg10 mi
7:53 AM63 °FSunny.8 mph90%29.90 "Hg10 mi
6:53 AM61 °FPassing clouds.7 mph93%29.88 "Hg10 mi
6:00 AM61 °FLight rain. Partly cloudy.3 mph93%29.89 "Hg10 mi
5:02 AM64 °FPassing clouds.21 mph90%29.93 "Hg10 mi
3:53 AM62 °FPassing clouds.3 mph93%29.85 "Hg10 mi
2:53 AM63 °FClear.5 mph90%29.84 "Hg10 mi
1:53 AM64 °FClear.6 mph87%29.85 "Hg10 mi
12:53 AM65 °FPassing clouds.9 mph91%29.84 "Hg10 mi
11:53 PM
Mon, May 23
66 °FPassing clouds.8 mph87%29.86 "Hg10 mi
10:53 PM66 °FPassing clouds.7 mph87%29.85 "Hg10 mi
Weather by CustomWeather, © 2016

See weather overviewHow to use our weather pages